Find Starlink 2144

NORAD ID: 47734 Int'l Des: 2021-017 Owner: SPXS Country: US Constellation: starlink operational
LEOCIRCULAR

現在のビュー

3D地球を読み込み中...

About Starlink 2144

Starlink 2144 (NORAD 47734) is a starlink constellation satellite (v1.0) launched Mar 4, 2021 by SPXS of US. It operates in LEO, CIRCULAR orbit with a mass of 260.00 kg.

Starlink 2144について

説明を読み込み中...

次回通過

Passes for default location (London). Set your location on the main map for personalized predictions.

高度履歴

Loading altitude history...

軌道要素

1 47734U 21017N 26168.09657447 .00003315 00000-0 11852-3 0 9993
2 47734 53.1600 101.4567 0001507 115.7602 244.3555 15.31707536293090
Epoch: Jun 17, 2026 • Age: 30 hours

現在のステータス

高度 476.1 km
速度 7.63 km/s
衛星直下点 51.66°N, 133.26°E
打ち上げ日 Mar 4, 2021
運用期間 5.2 years
タイプ internet

技術仕様

分類 Payload
質量 260.00 kg
乾燥質量 248.00 kg
総質量 260.00 kg
長さ 0.20 m
直径 2.80 m
スパン 9.00 m
形状 Box + pan
製造者 SPXS
バスタイプ Starlink
フェーズステータス In Orbit
所有者/国 SPXS/US

Most Searched